Location: Bremen
(53.0793°N, 8.8017°E)
Time: 05:55:53
(UTC+02:00)

Vanguard 2 Rocket - Visible Passes

Search period start: 22 April 2024 00:00
Search period end: 02 May 2024 00:00
Orbit: 555 x 3307 km, 32.9° (Epoch: 21 April)

Date Brightness Start Highest point End Pass type
(mag) Time Alt. Az. Time Alt. Az. Time Alt. Az.
22 Apr 9.7 00:59:07 10° WSW 01:16:01 39° S 01:32:07 10° SE visible
22 Apr 9.8 03:15:13 10° WSW 03:30:34 29° SSW 03:43:34 10° SSE visible
22 Apr 10.2 05:38:00 10° WSW 05:42:58 12° SW 05:47:32 10° SW visible
22 Apr 9.9 21:44:40 10° SSW 21:57:47 30° SSE 22:13:14 10° ESE visible
22 Apr 9.7 23:56:13 10° SW 00:12:22 39° S 00:29:15 10° ESE visible
23 Apr 9.8 02:10:59 10° WSW 02:27:23 34° SSW 02:42:10 10° SE visible
23 Apr 10.1 04:29:40 10° WSW 04:40:48 19° SW 04:50:27 10° S visible
23 Apr 9.8 22:53:55 10° SW 23:08:47 37° SSE 23:25:47 10° ESE visible
24 Apr 9.8 01:07:24 10° WSW 01:23:53 38° S 01:40:03 10° SE visible
24 Apr 10.0 03:24:03 10° W 03:38:09 25° SW 03:50:36 10° SSE visible
24 Apr 9.8 21:52:14 10° SW 22:05:29 33° SSE 22:21:43 10° ESE visible
25 Apr 9.8 00:04:24 10° WSW 00:20:14 39° S 00:37:17 10° ESE visible
25 Apr 9.9 02:19:33 10° WSW 02:35:04 31° SSW 02:49:34 10° SSE visible
25 Apr 10.2 04:40:19 10° WSW 04:48:06 14° SW 04:55:18 10° SSW visible
25 Apr 9.8 23:01:59 10° SW 23:16:38 38° S 23:33:53 10° ESE visible
26 Apr 9.8 01:15:51 10° WSW 01:31:40 35° SSW 01:47:39 10° SE visible
26 Apr 10.1 03:33:23 10° WSW 03:45:35 20° SW 03:56:50 10° S visible
26 Apr 9.8 22:00:08 10° SW 22:13:15 35° SSE 22:29:54 10° ESE visible
27 Apr 9.8 00:12:46 10° WSW 00:28:05 37° S 00:39:33 22° SE visible
27 Apr 10.0 02:28:25 10° WSW 02:42:38 26° SSW 02:56:24 10° SSE visible
27 Apr 9.8 20:58:51 10° SSW 21:10:15 31° SSE 21:25:22 10° ESE visible
27 Apr 9.8 23:10:15 10° WSW 23:24:30 38° S 23:38:30 17° SE visible
28 Apr 9.9 01:24:29 10° WSW 01:39:22 31° SSW 01:43:54 28° S visible
28 Apr 10.4 03:43:45 10° WSW 04:04:03 - S 03:49:20 14° WSW visible
28 Apr 9.7 22:08:16 10° SW 22:21:06 36° S 22:37:51 10° ESE visible
29 Apr 9.9 00:21:18 10° WSW 00:35:53 35° SSW 00:43:40 27° SSE visible
29 Apr 10.2 02:37:46 10° WSW 03:07:50 - SSE 02:49:07 21° SW visible
29 Apr 9.7 21:06:49 10° SW 21:18:02 33° SSE 21:33:27 10° ESE visible
29 Apr 9.8 23:18:41 10° WSW 23:32:23 36° S 23:43:43 21° SE visible
30 Apr 10.0 01:33:26 10° WSW 01:47:00 26° SSW 01:49:10 26° SSW visible
30 Apr 9.7 22:16:37 10° WSW 22:29:01 36° S 22:43:54 13° SE visible
01 May 9.9 00:30:01 10° WSW 00:43:39 31° SSW 00:49:23 27° S visible
01 May 10.4 02:48:05 10° WSW 02:54:51 15° SW 02:54:51 15° SW visible
01 May 9.7 21:15:01 10° SW 21:25:55 34° S 21:41:17 10° ESE visible
